Kodiak, AK

10:06 AM AKST en Diciembre 13, 2018 (GMT -0900)
Kodiak

Tiempo Historia de PADQ - Agosto, 2018

Change the Weather History Date:

Viernes, Agosto 10, 2018

  Actual Average Record
Temperature  
Temperatura media 56 ° F 56 ° F  
Temperatura máxima 63 ° F 62 ° F 72 ° F (2003)
Temperatura mínima 49 ° F 50 ° F 38 ° F (1970)
Degree Days  
Grados día de calefacción 9 9  
Month to date heating degree days 52 90  
Since 1 June heating degree days 719 878  
Since 1 July heating degree days 311 417  
Cooling Degree Days 0 0  
Month to date cooling degree days 6 0  
Year to date cooling degree days 8 1  
Since 1 June cooling degree days 8 1  
Growing Degree Days 7 (Base 50)    
Moisture  
Punto de rocío 49 ° F    
Average Humidity 74    
Maximum Humidity 83    
Minimum Humidity 64    
Precipitación  
Precipitación 0.00 pul 0.13 pul 1.53 pul (2014)
Month to date precipitation 1.65 1.40  
Year to date precipitation 39.34 43.63  
Nieve  
Nieve 0.00 pul 0.00 pul - ()
Month to date snowfall 0.0 0.0  
Since 1 July snowfall 0.0 0.0  
Grosos de nieve 0.00 pul    
Presión al nivel del mar  
Presión al nivel del mar 29.95 pul    
Viento  
Velocidad del viento 5 mph (SO)    
Velocidad máxima del viento 9 mph    
Max Gust Speed -    
Visibilidad 10 Millas    
Eventos Lluvia    
T = Trace of Precipitation, MM = Missing Value Source: NWS Daily Summary

Daily Weather History Graph

Daily Weather History Graph

Search for Another Location

Airport or City:

Astronomía

Aug. 10, 2018 Salida Puesta
Hora real 6:24 AM AKDT 10:04 PM AKDT
Crepúsculo civil 5:35 AM AKDT 10:52 PM AKDT
Crepúsculo náutico 4:25 AM AKDT 12:01 AM AKDT
Crepúsculo astronómico 2:47 AM AKDT 1:42 AM AKDT
Luna 5:16 AM AKDT (8/10) 10:00 PM AKDT (8/10)
Horas de luz 17h 17m
Horas de luz
15h 40m
Creciente menguante, 1% of the Moon is Illuminated
Ago 10
Creciente menguante
Ago 11
Nueva
Ago 17
Cuarto creciente
Ago 26
Luna llena
Sep 2
Cuarto menguante

Hourly Weather History & Observations

Hora (AKDT) Temp. Punto de rocío Humedad Presión Visibilidad Wind Dir Velocidad del viento Velocidad de ráfagas Precip Eventos Condiciones
12:53 AM 50.0 ° F 43.0 ° F 77% 29.96 pul 10.0 mi Oeste 6.9 mph - N/A   Despejado
1:53 AM 48.9 ° F 43.0 ° F 80% 29.96 pul 10.0 mi OSO 4.6 mph - N/A   Despejado
2:53 AM 50.0 ° F 44.1 ° F 80% 29.95 pul 10.0 mi Oeste 5.8 mph - N/A   Despejado
3:53 AM 51.1 ° F 44.1 ° F 77% 29.95 pul 10.0 mi Oeste 5.8 mph - N/A   Despejado
4:53 AM 51.1 ° F 46.0 ° F 83% 29.96 pul 10.0 mi Oeste 4.6 mph - N/A   Despejado
5:53 AM 51.1 ° F 46.0 ° F 83% 29.96 pul 10.0 mi Oeste 4.6 mph - N/A   Despejado
6:53 AM 51.1 ° F 46.0 ° F 83% 29.96 pul 10.0 mi Sin viento Sin viento - N/A   Muy nublado
7:53 AM 53.1 ° F 46.9 ° F 80% 29.96 pul 10.0 mi Sin viento Sin viento - N/A   Nublado
8:53 AM 54.0 ° F 46.9 ° F 77% 29.97 pul 10.0 mi Sin viento Sin viento - N/A   Nublado
9:53 AM 54.0 ° F 46.9 ° F 77% 29.97 pul 10.0 mi Sin viento Sin viento - N/A   Nublado
10:53 AM 55.9 ° F 46.9 ° F 72% 29.97 pul 10.0 mi NE 3.5 mph - N/A   Nublado
11:53 AM 57.9 ° F 48.0 ° F 70% 29.97 pul 10.0 mi Variable 3.5 mph - N/A   Nublado
12:53 PM 61.0 ° F 48.9 ° F 64% 29.96 pul 10.0 mi Sur 8.1 mph - N/A   Nubes dispersas
1:53 PM 63.0 ° F 51.1 ° F 65% 29.97 pul 10.0 mi SO 9.2 mph - N/A   Parcialmente nublado
2:53 PM 62.1 ° F 51.1 ° F 67% 29.96 pul 10.0 mi Sur 6.9 mph - N/A   Muy nublado
3:53 PM 63.0 ° F 52.0 ° F 67% 29.96 pul 10.0 mi Sur 9.2 mph - N/A   Nubes dispersas
4:53 PM 63.0 ° F 53.1 ° F 70% 29.94 pul 10.0 mi Este 6.9 mph - N/A   Nublado
5:53 PM 62.1 ° F 55.0 ° F 78% 29.93 pul 10.0 mi Variable 5.8 mph - 0.00 pul Lluvia Lluvia débil
6:53 PM 62.1 ° F 54.0 ° F 75% 29.92 pul 10.0 mi SSE 8.1 mph - 0.00 pul   Muy nublado
7:53 PM 64.0 ° F 55.0 ° F 73% 29.91 pul 10.0 mi SSO 11.5 mph - 0.01 pul   Despejado
8:53 PM 62.1 ° F 54.0 ° F 75% 29.91 pul 10.0 mi SO 11.5 mph - N/A   Nubes dispersas
9:53 PM 60.1 ° F 53.1 ° F 78% 29.92 pul 10.0 mi SO 10.4 mph - N/A   Despejado
10:53 PM 59.0 ° F 52.0 ° F 78% 29.92 pul 10.0 mi Sur 10.4 mph - N/A   Parcialmente nublado
11:53 PM 57.9 ° F 52.0 ° F 81% 29.93 pul 10.0 mi SO 5.8 mph - N/A   Despejado